Tracking 27382 objects as of 5-Jun-2023
HD Live streaming from Space Station
objects crossing your sky now

STARLINK-5925

Track STARLINK-5925 now!
10-day predictions
STARLINK-5925 is classified as:


NORAD ID: 55945
Int'l Code: 2023-037AH
Perigee: 364.1 km
Apogee: 368.4 km
Inclination: 70.0 °
Period: 91.7 minutes
Semi major axis: 6737 km
RCS: Unknown
Launch date: March 17, 2023
Source: United States (US)
Launch site: AIR FORCE WESTERN TEST RANGE (AFWTR)
Your satellite tracking list
Your tracking list is empty




NASA's NSSDC Master Catalog

Two Line Element Set (TLE):
1 55945U 23037AH  23155.79524888  .00000994  00000-0  10033-4 0  9993
2 55945  69.9990 318.8782 0003163 265.3845  94.6989 15.69929689 12939
Source of the keplerian elements: AFSPC